This demonstration page uses our WeatherBlox Daily Observations layout. Learn more.

Left ArrowRight Arrow

Hourly Observations for May 25, 2021

Temp ( °F °C ) Dew Point ( °F °C ) Humidity (%) Winds ( mph kmh ) Pressure ( in mb ) Visibility ( mi km ) Precip ( " mm )
12:53 am 00:53 Clear 70 21.1 64 17.8 82 82 Calm 30.14 1021 10 16 0.00 0.00
1:53 am 01:53 Clear 68 20 64 17.8 87 87 Calm 30.13 1020 10 16 0.00 0.00
2:53 am 02:53 Clear 68 20 64 17.8 87 87 Calm 30.12 1020 10 16 0.00 0.00
3:53 am 03:53 Clear 66 18.9 63 17.2 90 90 Calm 30.12 1020 10 16 0.00 0.00
4:53 am 04:53 Clear 65 18.3 62 16.7 90 90 Calm 30.12 1020 10 16 0.00 0.00
5:53 am 05:53 Clear 65 18.3 62 16.7 90 90 Calm 30.14 1021 10 16 0.00 0.00
6:53 am 06:53 Sunny 65 18.3 62 16.7 90 90 Calm 30.15 1021 9 14 0.00 0.00
7:53 am 07:53 Sunny 71 21.7 65 18.3 81 81 Calm 30.17 1022 10 16 0.00 0.00
8:53 am 08:53 Sunny 75 23.9 65 18.3 71 71 Calm 30.18 1022 10 16 0.00 0.00
9:53 am 09:53 Sunny 82 27.8 65 18.3 56 56 Calm 30.18 1022 10 16 0.00 0.00
10:53 am 10:53 Sunny 84 28.9 65 18.3 53 53 Calm 30.18 1022 10 16 0.00 0.00
11:53 am 11:53 Sunny 86 30 64 17.8 48 48 Calm 30.18 1022 10 16 0.00 0.00
12:53 pm 12:53 Partly Cloudy 87 30.6 56 13.3 35 35 SW 3 6 30.18 1022 10 16 0.00 0.00
1:53 pm 13:53 Sunny 88 31.1 58 14.4 36 36 Calm 30.17 1022 10 16 0.00 0.00
2:53 pm 14:53 Mostly Cloudy 88 31.1 61 16.1 40 40 SSW 7 11 30.16 1021 10 16 0.00 0.00
3:53 pm 15:53 Sunny 89 31.7 58 14.4 35 35 S 10 17 30.14 1021 10 16 0.00 0.00
4:53 pm 16:53 Sunny 90 32.2 59 15 35 35 SW 6 9 30.12 1020 10 16 0.00 0.00
5:53 pm 17:53 Sunny 89 31.7 59 15 36 36 W 8 13 30.11 1020 10 16 0.00 0.00
6:53 pm 18:53 Sunny 88 31.1 58 14.4 36 36 VRB 6 9 30.10 1019 10 16 0.00 0.00
7:53 pm 19:53 Sunny 87 30.6 57 13.9 36 36 WSW 5 7 30.10 1019 10 16 0.00 0.00
8:53 pm 20:53 Clear 84 28.9 59 15 43 43 SW 3 6 30.11 1020 10 16 0.00 0.00
9:53 pm 21:53 Clear 77 25 62 16.7 60 60 Calm 30.13 1020 10 16 0.00 0.00
10:53 pm 22:53 Clear 74 23.3 63 17.2 69 69 Calm 30.14 1021 10 16 0.00 0.00
11:53 pm 23:53 Mostly Clear 71 21.7 64 17.8 79 79 Calm 30.16 1021 10 16 0.00 0.00

Powered by AerisWeather